Clipper 3 — ZMT3984 — position and weather

sailwx.info

Track history (hours):
 
Tides and Currents Weather Stations Pressure Air Temp Water Temp Dewpoint Dewpoint Depression Visibility Wind Speed Wind Dir Waves Ship Positions

Clipper 3

Last reported at 2014-Oct-22 05:32 UTC. Time now 2014-Oct-22 12:21 UTC.
Position S 36°53' E 174°59'.

Length 14 m; draft 1 m.

Type: High speed craft. MMSI: 512000741.

Date/timePositionNaut miles runAvg speedWind from/ knotsBaromVisibWave heightAir tempDewpointWater temp
2014-Oct-22 05:32S 36°53' E 174°59'0 0.0
2014-Oct-22 04:13S 36°53' E 174°59'1116.8
2014-Oct-22 03:33S 36°51' E 174°46'11 5.4
2014-Oct-22 01:32S 36°53' E 174°59'0 0.0
2014-Oct-21 20:33S 36°53' E 174°59'8 7.8
2014-Oct-21 19:33S 36°50' E 174°50'3 3.3
2014-Oct-21 18:33S 36°50' E 174°46'11 0.8
2014-Oct-21 05:27S 36°53' E 174°59'3 3.6
2014-Oct-21 04:33S 36°52' E 174°56'8 8.0
2014-Oct-21 03:33S 36°51' E 174°46'6 2.8
2014-Oct-21 01:17S 36°51' E 174°54'1 1.5
2014-Oct-21 00:33S 36°51' E 174°55'4 3.7
2014-Oct-20 23:28S 36°53' E 174°59'1 0.4
2014-Oct-20 20:18S 36°52' E 174°58'810.9
2014-Oct-20 19:33S 36°50' E 174°49'2 1.8
2014-Oct-20 18:33S 36°50' E 174°46'6 0.5
2014-Oct-20 05:15S 36°51' E 174°54'6 3.8
2014-Oct-20 03:33S 36°51' E 174°46'6 1.5
2014-Oct-19 23:16S 36°51' E 174°54'6 3.7
2014-Oct-19 21:34S 36°51' E 174°46'6 4.0
2014-Oct-19 20:05S 36°51' E 174°53'3 6.5
2014-Oct-19 19:33S 36°50' E 174°49'3 2.4
2014-Oct-19 18:30S 36°51' E 174°46'  
2014-Oct-17 05:18S 36°51' E 174°54'7 3.7
2014-Oct-17 03:33S 36°50' E 174°46'7 2.9
2014-Oct-17 01:17S 36°51' E 174°54'1 0.1
2014-Oct-16 20:05S 36°51' E 174°53'3 6.2
2014-Oct-16 19:33S 36°50' E 174°49'3 0.2
2014-Oct-16 03:28S 36°50' E 174°46'6 2.9
2014-Oct-16 01:17S 36°51' E 174°54'0 0.0
2014-Oct-15 23:17S 36°51' E 174°54'0 0.0
2014-Oct-15 20:07S 36°51' E 174°54'4 7.2
2014-Oct-15 19:33S 36°50' E 174°49'2 2.2
2014-Oct-15 18:33S 36°50' E 174°46'0 0.0
2014-Oct-15 03:32S 36°50' E 174°46'6 0.9
2014-Oct-14 20:09S 36°51' E 174°54'3 5.5
2014-Oct-14 19:34S 36°50' E 174°50'3 3.1
2014-Oct-14 18:34S 36°50' E 174°46'7 0.5
2014-Oct-14 05:17S 36°51' E 174°54'7 3.9
2014-Oct-14 03:33S 36°51' E 174°46'7 2.9
2014-Oct-14 01:18S 36°50' E 174°54'0 0.1
2014-Oct-13 23:17S 36°51' E 174°54'0 0.0
2014-Oct-13 20:06S 36°51' E 174°54'4 8.2
2014-Oct-13 19:33S 36°50' E 174°49'2 1.7
2014-Oct-13 18:33S 36°50' E 174°47'6 0.4
2014-Oct-13 05:15S 36°51' E 174°54'6 3.8
2014-Oct-13 03:34S 36°51' E 174°46'7 0.9
2014-Oct-12 20:06S 36°51' E 174°54'4 7.9
2014-Oct-12 19:33S 36°50' E 174°49'2 1.8
2014-Oct-12 18:34S 36°50' E 174°47'  
Track history (hours):
 
Tides and Currents Weather Stations Pressure Air Temp Water Temp Dewpoint Dewpoint Depression Visibility Wind Speed Wind Dir Waves Ship Positions

Clipper 3

Last reported at 2014-Oct-22 05:32 UTC. Time now 2014-Oct-22 12:21 UTC.
Position S 36°53' E 174°59'.

Length 14 m; draft 1 m.

Type: High speed craft. MMSI: 512000741.

Date/timePositionNaut miles runAvg speedWind from/ knotsBaromVisibWave heightAir tempDewpointWater temp
2014-Oct-22 05:32S 36°53' E 174°59'0 0.0
2014-Oct-22 04:13S 36°53' E 174°59'1116.8
2014-Oct-22 03:33S 36°51' E 174°46'11 5.4
2014-Oct-22 01:32S 36°53' E 174°59'0 0.0
2014-Oct-21 20:33S 36°53' E 174°59'8 7.8
2014-Oct-21 19:33S 36°50' E 174°50'3 3.3
2014-Oct-21 18:33S 36°50' E 174°46'11 0.8
2014-Oct-21 05:27S 36°53' E 174°59'3 3.6
2014-Oct-21 04:33S 36°52' E 174°56'8 8.0
2014-Oct-21 03:33S 36°51' E 174°46'6 2.8
2014-Oct-21 01:17S 36°51' E 174°54'1 1.5
2014-Oct-21 00:33S 36°51' E 174°55'4 3.7
2014-Oct-20 23:28S 36°53' E 174°59'1 0.4
2014-Oct-20 20:18S 36°52' E 174°58'810.9
2014-Oct-20 19:33S 36°50' E 174°49'2 1.8
2014-Oct-20 18:33S 36°50' E 174°46'6 0.5
2014-Oct-20 05:15S 36°51' E 174°54'6 3.8
2014-Oct-20 03:33S 36°51' E 174°46'6 1.5
2014-Oct-19 23:16S 36°51' E 174°54'6 3.7
2014-Oct-19 21:34S 36°51' E 174°46'6 4.0
2014-Oct-19 20:05S 36°51' E 174°53'3 6.5
2014-Oct-19 19:33S 36°50' E 174°49'3 2.4
2014-Oct-19 18:30S 36°51' E 174°46'  
2014-Oct-17 05:18S 36°51' E 174°54'7 3.7
2014-Oct-17 03:33S 36°50' E 174°46'7 2.9
2014-Oct-17 01:17S 36°51' E 174°54'1 0.1
2014-Oct-16 20:05S 36°51' E 174°53'3 6.2
2014-Oct-16 19:33S 36°50' E 174°49'3 0.2
2014-Oct-16 03:28S 36°50' E 174°46'6 2.9
2014-Oct-16 01:17S 36°51' E 174°54'0 0.0
2014-Oct-15 23:17S 36°51' E 174°54'0 0.0
2014-Oct-15 20:07S 36°51' E 174°54'4 7.2
2014-Oct-15 19:33S 36°50' E 174°49'2 2.2
2014-Oct-15 18:33S 36°50' E 174°46'0 0.0
2014-Oct-15 03:32S 36°50' E 174°46'6 0.9
2014-Oct-14 20:09S 36°51' E 174°54'3 5.5
2014-Oct-14 19:34S 36°50' E 174°50'3 3.1
2014-Oct-14 18:34S 36°50' E 174°46'7 0.5
2014-Oct-14 05:17S 36°51' E 174°54'7 3.9
2014-Oct-14 03:33S 36°51' E 174°46'7 2.9
2014-Oct-14 01:18S 36°50' E 174°54'0 0.1
2014-Oct-13 23:17S 36°51' E 174°54'0 0.0
2014-Oct-13 20:06S 36°51' E 174°54'4 8.2
2014-Oct-13 19:33S 36°50' E 174°49'2 1.7
2014-Oct-13 18:33S 36°50' E 174°47'6 0.4
2014-Oct-13 05:15S 36°51' E 174°54'6 3.8
2014-Oct-13 03:34S 36°51' E 174°46'7 0.9
2014-Oct-12 20:06S 36°51' E 174°54'4 7.9
2014-Oct-12 19:33S 36°50' E 174°49'2 1.8
2014-Oct-12 18:34S 36°50' E 174°47'  

Dump ship's entire track history